Weather History for Hanford, CA

Change the Weather History Date:

Friday, December 28, 2012

  Actual Average Record
Temperature  
Mean Temperature 39 °F 44 °F  
Max Temperature 47 °F 53 °F 63 °F (2001)
Min Temperature 31 °F 35 °F 24 °F (2011)
Degree Days  
Heating Degree Days 26    
Month to date heating degree days 473  
Since 1 July heating degree days 872  
Cooling Degree Days 0    
Month to date cooling degree days 0  
Year to date cooling degree days 2018  
Moisture  
Dew Point 37 °F    
Average Humidity 91    
Maximum Humidity 100    
Minimum Humidity 82    
Precipitation  
Precipitation 0.00 in 0.09 in 0.86 in (2004)
Month to date precipitation 1.50 1.37  
Year to date precipitation 6.56 9.84  
Since 1 July precipitation 1.98 3.08  
Snow  
Snow 0.00 in - - ()
Month to date snowfall 0.0  
Since 1 July snowfall 0.0  
Snow Depth 0.00 in    
Sea Level Pressure  
Sea Level Pressure 30.16 in    
Wind  
Wind Speed 2 mph (SSE)    
Max Wind Speed 6 mph    
Max Gust Speed 8 mph    
Visibility 2 miles    
Events Fog    
T = Trace of Precipitation, MM = Missing Value Source: NWS Daily Summary

Daily Weather History Graph

Daily Weather History Graph

Search for Another Location

Airport:

Trip Planner

Search our weather history database for the weather conditions in past years. The results will help you decide how hot, cold, wet, or windy it might be!

Date:

Astronomy

Dec. 28, 2012 Rise Set
Actual Time 7:09 AM PST 4:51 PM PST
Civil Twilight 6:40 AM PST 5:20 PM PST
Nautical Twilight 6:08 AM PST 5:52 PM PST
Astronomical Twilight 5:36 AM PST 6:24 PM PST
Moon 5:31 PM PST (12/28) 7:08 AM PST (12/28)
Length of Visible Light 10h 39m
Length of Day
9h 42m
Full, 100% of the Moon is Illuminated
Dec 28
Full
Jan 4
Last Quarter
Jan 11
New
Jan 18
First Quarter
Jan 26
Full

Hourly Weather History & Observations

Time (PST) Temp. Windchill Dew Point Humidity Pressure Visibility Wind Dir Wind Speed Gust Speed Precip Events Conditions
12:03 AM 33.8 °F - 33.8 °F 100% 30.21 in 0.5 mi Calm Calm - N/A Fog Fog
12:15 AM 33.8 °F - 32.0 °F 93% 30.21 in 0.2 mi Calm Calm - N/A Fog Fog
12:22 AM 33.8 °F - 30.2 °F 87% 30.21 in 0.2 mi Calm Calm - N/A Fog Fog
12:53 AM 30.9 °F 27.5 °F 30.0 °F 96% 30.22 in 0.2 mi SSW 3.5 mph - N/A Fog Light Freezing Fog
1:53 AM 32.0 °F - 30.9 °F 96% 30.23 in 0.2 mi Calm Calm - N/A Fog Fog
2:53 AM 32.0 °F 26.4 °F 30.9 °F 96% 30.22 in 0.2 mi NE 5.8 mph - N/A Fog Fog
3:53 AM 34.0 °F - 33.1 °F 96% 30.22 in 0.2 mi Calm Calm - N/A Fog Fog
4:53 AM 33.1 °F - 32.0 °F 96% 30.21 in 0.2 mi Calm Calm - N/A Fog Fog
5:53 AM 32.0 °F - 30.9 °F 96% 30.22 in 0.2 mi Calm Calm - N/A Fog Fog
6:53 AM 33.1 °F 30.0 °F 33.1 °F 100% 30.23 in 0.2 mi South 3.5 mph - N/A Fog Fog
7:53 AM 33.1 °F - 33.1 °F 100% 30.22 in 0.2 mi Calm Calm - N/A Fog Fog
8:53 AM 34.0 °F 31.0 °F 34.0 °F 100% 30.23 in 0.2 mi South 3.5 mph - N/A Fog Fog
9:53 AM 36.0 °F 33.3 °F 36.0 °F 100% 30.24 in 0.2 mi SSW 3.5 mph - N/A Fog Fog
10:53 AM 37.9 °F - 37.0 °F 97% 30.23 in 0.2 mi Calm Calm - N/A Fog Fog
11:53 AM 39.0 °F - 39.0 °F 100% 30.20 in 0.2 mi Calm Calm - N/A Fog Fog
12:53 PM 41.0 °F 38.0 °F 39.9 °F 96% 30.17 in 0.5 mi ENE 4.6 mph - N/A Fog Fog
1:15 PM 42.8 °F 41.1 °F 39.2 °F 87% 30.15 in 1.2 mi ESE 3.5 mph - N/A   Overcast
1:53 PM 43.0 °F - 42.1 °F 97% 30.15 in 3.0 mi Calm Calm - N/A   Scattered Clouds
2:53 PM 46.9 °F - 41.0 °F 80% 30.14 in 6.0 mi Calm Calm - N/A   Haze
3:53 PM 46.9 °F - 42.1 °F 83% 30.12 in 5.0 mi Calm Calm - N/A   Haze
4:53 PM 46.0 °F 43.1 °F 42.1 °F 86% 30.12 in 7.0 mi West 5.8 mph - N/A   Mostly Cloudy
5:53 PM 44.1 °F - 41.0 °F 89% 30.12 in 5.0 mi Calm Calm - N/A   Mostly Cloudy
6:53 PM 43.0 °F - 41.0 °F 93% 30.12 in 4.0 mi Calm Calm - N/A   Mostly Cloudy
7:53 PM 44.1 °F - 41.0 °F 89% 30.11 in 3.0 mi Calm Calm - N/A   Overcast
8:01 PM 42.8 °F - 41.0 °F 93% 30.10 in 1.8 mi Calm Calm - N/A   Overcast
8:08 PM 42.8 °F - 41.0 °F 93% 30.10 in 3.0 mi Calm Calm - N/A   Overcast
8:53 PM 42.1 °F - 39.9 °F 92% 30.11 in 3.0 mi Calm Calm - N/A   Overcast
9:53 PM 43.0 °F 39.5 °F 41.0 °F 93% 30.09 in 3.0 mi SE 5.8 mph - N/A   Overcast
10:48 PM 41.0 °F - 39.2 °F 93% 30.08 in 2.5 mi Calm Calm - N/A   Mostly Cloudy
10:53 PM 42.1 °F - 39.9 °F 92% 30.09 in 2.0 mi Calm Calm - N/A   Overcast
11:25 PM 41.0 °F - 39.2 °F 93% 30.07 in 3.0 mi Calm Calm - N/A   Overcast
11:34 PM 41.0 °F - 39.2 °F 93% 30.07 in 2.0 mi Calm Calm - N/A   Overcast
11:53 PM 41.0 °F - 39.9 °F 96% 30.08 in 2.0 mi Calm Calm - N/A   Mostly Cloudy